TimePST,TemperatureF,Dew PointF,Humidity,Sea Level PressureIn,VisibilityMPH,Wind Direction,Wind SpeedMPH,Gust SpeedMPH,PrecipitationIn,Events,Conditions,WindDirDegrees,DateUTC
12:53 AM,5.0,-4.0,66,30.50,10.0,Calm,Calm,-,N/A,,Clear,0,2013-12-08 08:53:00
1:53 AM,5.0,-2.9,70,30.50,10.0,SE,4.6,-,N/A,,Clear,140,2013-12-08 09:53:00
2:53 AM,6.1,-2.0,69,30.51,10.0,East,4.6,-,N/A,,Clear,100,2013-12-08 10:53:00
3:53 AM,5.0,-2.9,70,30.51,10.0,SE,6.9,-,N/A,,Clear,130,2013-12-08 11:53:00
4:53 AM,6.1,-2.0,69,30.51,10.0,ESE,3.5,-,N/A,,Clear,110,2013-12-08 12:53:00
5:53 AM,8.1,-0.9,67,30.51,10.0,Calm,Calm,-,N/A,,Partly Cloudy,0,2013-12-08 13:53:00
6:53 AM,10.0,-0.9,61,30.53,10.0,Calm,Calm,-,N/A,,Mostly Cloudy,0,2013-12-08 14:53:00
7:53 AM,12.9,-4.0,47,30.53,10.0,SW,11.5,-,N/A,,Overcast,220,2013-12-08 15:53:00
8:53 AM,14.0,-2.0,49,30.54,10.0,SSW,5.8,-,N/A,,Overcast,200,2013-12-08 16:53:00
9:53 AM,15.1,-0.9,49,30.55,10.0,WNW,3.5,-,N/A,,Partly Cloudy,300,2013-12-08 17:53:00
10:53 AM,16.0,-0.9,47,30.56,10.0,NW,3.5,-,N/A,,Partly Cloudy,310,2013-12-08 18:53:00
11:53 AM,19.0,-0.9,42,30.56,10.0,Calm,Calm,-,N/A,,Overcast,0,2013-12-08 19:53:00
12:53 PM,19.0,-0.0,43,30.56,10.0,NW,4.6,-,N/A,,Partly Cloudy,310,2013-12-08 20:53:00
1:53 PM,19.9,-0.0,42,30.55,10.0,WNW,4.6,-,N/A,,Clear,290,2013-12-08 21:53:00
2:53 PM,19.9,-0.0,42,30.56,10.0,West,3.5,-,N/A,,Clear,280,2013-12-08 22:53:00
3:53 PM,18.0,-0.0,45,30.58,10.0,Calm,Calm,-,N/A,,Clear,0,2013-12-08 23:53:00
4:53 PM,15.1,-0.0,51,30.60,10.0,Calm,Calm,-,N/A,,Clear,0,2013-12-09 00:53:00
5:53 PM,10.9,-0.0,61,30.61,10.0,West,3.5,-,N/A,,Clear,280,2013-12-09 01:53:00
6:53 PM,10.0,-0.0,64,30.61,10.0,SW,4.6,-,N/A,,Clear,220,2013-12-09 02:53:00
7:53 PM,12.0,-0.0,59,30.62,10.0,Calm,Calm,-,N/A,,Clear,0,2013-12-09 03:53:00
8:53 PM,7.0,-0.9,70,30.63,10.0,Calm,Calm,-,N/A,,Clear,0,2013-12-09 04:53:00
9:53 PM,6.1,-2.0,69,30.66,10.0,East,4.6,-,N/A,,Clear,100,2013-12-09 05:53:00
10:53 PM,3.9,-2.0,76,30.64,10.0,Calm,Calm,-,N/A,,Clear,0,2013-12-09 06:53:00
11:53 PM,3.9,-2.9,73,30.65,10.0,Calm,Calm,-,N/A,,Clear,0,2013-12-09 07:53:00